Wetbulb
56.46 56.16 55.96 55.91 55.77 56.21 55.86 55.45 55.57 55.26 54.78 54.57 54.73 54.76 54.53 54.69 54.54 50.94 43.99 50.63 56.68 60.60 61.94 59.44 58.80 59.54 58.64 56.61 56.79 56.74 47.42 43.35 44.50 46.19 46.01 52.34 52.49 56.89 57.18 56.74 56.92 58.02 57.25 58.28 58.00
56.23 56.61 56.54 56.14 56.08 55.72 55.84 55.72 55.57 55.32 55.00 54.60 54.46 54.54 54.41 54.34 49.61 46.52 51.66 54.34 55.81 59.71 54.58 54.61 53.24 56.02 54.77 54.36 54.96 51.49 47.00 45.75 49.45 50.31 48.92 52.26 52.01 54.54 53.84 54.87 56.04 55.03 57.96 59.04 56.73
55.91 55.99 56.34 56.33 56.15 56.01 55.56 55.74 55.43 55.25 55.01 54.66 54.42 54.38 54.24 52.72 44.66 42.57 57.15 56.47 55.18 56.28 53.72 55.57 55.20 53.77 51.88 53.37 52.89 51.64 46.24 50.57 51.04 52.52 52.69 52.10 51.41 52.44 53.12 52.18 55.31 54.54 56.46 56.27 55.77
56.13 56.04 55.70 55.88 55.85 55.71 55.46 55.28 55.25 55.04 54.83 54.64 54.30 54.23 53.94 49.44 28.36 48.01 56.70 55.95 55.68 54.36 52.15 52.22 51.63 47.53 49.04 48.22 52.36 47.83 50.73 51.14 52.06 53.36 52.28 50.73 52.19 51.70 52.35 54.88 57.34 58.00 57.57 55.54 54.95
56.38 56.26 55.38 55.33 55.26 55.16 55.01 54.76 54.92 54.85 54.49 54.29 54.06 54.06 49.01 41.61 41.27 49.02 54.22 52.63 50.51 51.68 50.11 49.51 48.04 47.38 44.87 47.72 49.91 48.63 49.34 51.89 52.87 53.42 52.45 53.63 51.24 50.67 51.37 52.98 58.77 58.67 56.37 55.12 55.04
56.30 55.83 55.32 54.99 54.75 54.80 54.69 54.44 54.41 54.34 54.28 54.02 53.81 53.28 44.54 34.91 47.23 49.68 48.90 48.45 47.88 49.92 49.32 49.34 48.01 49.91 47.79 47.89 47.46 50.57 49.85 49.69 51.91 52.12 52.88 50.86 51.44 51.27 51.99 58.41 57.36 57.11 55.42 54.91 55.39
56.02 55.56 55.28 54.66 54.43 54.40 54.24 54.13 54.11 54.05 53.98 53.50 53.51 49.75 42.85 39.01 47.22 47.74 47.54 46.53 48.03 48.05 43.59 47.72 50.74 49.03 49.25 46.47 50.94 49.79 45.45 48.57 50.05 51.64 51.11 52.68 48.24 48.75 53.45 58.63 56.24 56.03 56.06 55.15 55.27
55.68 55.26 54.73 54.19 53.96 53.79 53.72 53.90 53.90 53.84 53.58 53.19 52.82 45.73 37.74 47.03 46.47 46.88 47.82 46.34 48.20 48.15 46.74 48.44 51.12 49.25 48.11 49.64 47.66 45.79 44.28 39.97 47.55 51.29 52.06 50.47 43.35 51.37 55.22 56.90 56.01 55.40 55.45 54.90 54.88
54.68 54.59 54.28 53.67 53.42 53.40 53.35 53.69 54.03 53.67 53.44 52.81 45.31 41.83 36.50 49.37 44.23 47.59 47.75 44.86 46.18 46.69 47.82 49.65 50.25 46.41 47.86 43.43 41.09 42.07 35.74 38.77 41.33 50.05 50.18 49.09 45.04 50.52 55.35 56.15 55.27 55.24 55.36 55.40 55.34
54.26 54.03 53.72 53.34 53.36 53.42 53.38 53.46 52.79 51.58 48.86 48.60 46.27 37.03 40.53 39.68 42.91 44.00 45.59 44.18 41.44 44.98 45.13 44.74 43.88 43.42 44.27 40.81 32.66 35.39 36.16 38.33 38.56 44.74 48.95 46.50 46.54 48.83 52.05 55.47 54.85 55.23 55.48 55.92 55.95
54.13 53.88 53.51 53.11 53.06 52.57 49.06 42.05 37.42 33.90 39.58 35.04 36.47 37.96 40.06 42.70 44.13 42.29 44.84 44.14 44.31 41.90 35.21 39.93 37.54 35.83 39.40 41.42 41.63 39.45 38.06 37.85 40.85 44.43 46.85 45.85 46.42 48.48 51.58 54.29 54.38 54.85 55.69 56.32 56.92
54.04 53.61 53.28 53.36 53.03 52.26 44.43 40.42 40.67 41.04 34.23 39.89 40.06 39.76 41.97 41.74 37.66 40.88 46.20 39.09 38.47 34.38 37.93 36.53 35.04 39.57 42.92 42.84 40.80 38.60 37.18 37.28 39.73 42.63 45.80 46.08 44.64 48.60 50.97 52.35 54.40 54.85 55.93 55.95 57.69
53.60 53.37 53.36 53.03 52.00 45.21 42.44 41.84 46.16 42.43 30.53 33.98 37.87 37.30 38.77 42.12 38.36 38.56 42.04 40.73 36.41 33.67 35.22 34.19 37.72 42.52 41.53 40.40 38.30 36.84 34.79 37.18 37.12 41.77 46.33 45.03 42.72 45.05 49.20 51.53 54.63 55.27 56.77 56.81 56.60
53.54 52.63 51.78 51.88 45.13 42.32 40.50 45.52 45.14 41.44 18.61 27.42 34.33 38.66 41.26 41.93 36.34 43.23 43.96 41.21 38.54 34.65 36.15 36.48 40.69 40.93 40.17 38.83 38.62 33.96 39.54 38.54 37.48 37.59 37.00 44.59 34.72 42.68 46.75 47.65 52.02 54.14 54.70 55.72 56.34
51.42 51.09 51.64 49.91 41.60 40.46 42.97 45.62 44.21 35.40 3.20 28.71 33.36 43.26 40.77 37.12 37.40 37.27 45.21 42.40 34.06 35.24 37.01 35.22 38.16 37.94 37.99 38.24 39.76 37.40 42.07 39.41 37.72 36.16 38.09 41.32 36.34 41.67 46.07 45.24 48.30 53.32 54.18 55.32 56.61
51.31 51.57 50.61 45.48 43.54 43.19 44.51 43.70 37.59 16.48 3.82 25.03 32.51 31.34 31.78 35.35 34.84 37.26 38.08 43.19 41.78 34.04 37.50 37.52 42.73 41.41 40.95 42.52 42.51 43.62 40.09 39.17 36.40 33.94 30.57 38.71 37.91 39.00 42.22 45.57 46.78 52.68 54.66 55.59 56.49
50.57 50.35 47.38 45.65 39.02 43.93 42.56 35.27 17.50 7.35 24.26 20.08 26.27 30.50 30.09 30.15 30.88 32.36 32.14 31.42 30.71 26.88 27.07 33.82 37.11 40.70 43.05 40.47 42.09 40.18 35.81 29.70 28.31 28.93 29.34 36.92 35.53 39.13 45.63 48.00 48.30 50.93 54.23 55.85 55.76
50.08 49.33 46.12 44.03 43.05 42.14 35.73 24.46 5.85 10.05 12.58 29.50 29.42 28.88 26.63 29.19 28.39 29.49 28.51 27.96 33.78 32.47 30.44 26.42 28.53 37.61 42.36 41.36 38.32 38.29 35.35 29.01 22.90 27.54 30.21 37.57 31.72 38.71 44.11 47.74 48.28 52.83 54.35 56.07 52.50
48.49 42.03 41.13 41.49 43.27 39.80 28.21 9.84 12.17 14.57 26.76 26.92 26.03 16.61 16.59 26.14 26.16 26.54 25.50 27.72 31.95 33.50 26.69 28.66 29.69 40.81 41.84 43.03 41.44 35.99 36.02 38.99 32.85 31.51 30.17 32.73 35.63 42.94 45.21 48.25 49.14 51.53 52.88 50.32 49.39
38.74 38.42 39.24 42.35 42.06 34.16 21.53 18.72 13.57 27.67 29.71 23.84 14.83 17.68 10.51 19.34 19.90 22.56 24.64 32.32 30.80 34.56 35.86 34.65 26.94 37.49 40.31 40.90 43.29 40.88 41.58 34.08 33.57 26.27 25.12 32.50 33.02 36.37 40.49 44.85 46.30 47.15 46.93 46.36 45.56
37.85 29.94 37.82 41.50 36.98 27.68 13.69 15.07 21.57 30.10 30.45 21.33 15.19 17.13 16.96 20.94 22.42 20.62 26.14 31.19 32.58 31.76 35.74 34.67 32.62 31.58 37.49 33.83 33.93 38.20 37.00 37.37 37.01 33.91 29.60 28.65 31.36 36.27 37.23 45.35 44.97 44.98 43.69 43.89 43.81
33.47 21.12 38.46 38.30 24.52 27.80 12.75 16.90 30.93 28.15 31.37 29.68 28.45 25.16 15.71 18.23 15.76 21.81 24.21 28.89 34.35 32.36 29.64 34.49 32.70 27.05 31.10 36.68 39.54 37.56 37.40 38.03 30.99 30.40 30.97 31.46 33.45 38.37 38.65 44.09 45.43 43.32 42.38 42.66 43.04
30.76 32.22 38.23 35.38 15.49 17.29 26.72 25.14 28.13 27.14 28.79 28.96 26.38 26.36 26.78 18.98 13.02 21.10 28.52 33.26 33.13 31.76 29.96 32.72 29.97 22.10 26.92 34.06 38.11 34.56 37.14 39.25 37.05 33.48 28.75 28.77 33.74 41.17 42.08 42.09 41.53 39.26 40.11 40.61 40.53
28.38 19.43 24.51 28.77 30.10 25.07 19.40 17.51 22.26 29.91 29.35 30.92 29.86 31.30 25.87 13.29 24.52 19.57 25.91 31.32 32.96 32.66 37.36 36.93 31.78 29.09 26.63 30.72 34.29 33.77 35.59 38.68 36.81 29.97 30.15 31.70 31.43 37.47 39.15 39.31 39.09 38.58 38.23 37.89 37.95
28.54 22.79 25.55 12.81 17.44 24.15 26.95 26.05 24.96 19.71 30.85 31.61 28.02 23.49 24.43 18.79 15.04 23.29 27.02 28.00 31.13 33.64 32.36 32.90 25.97 30.00 30.97 33.27 33.60 34.06 35.70 36.96 36.82 36.67 30.83 33.10 31.48 37.52 39.20 39.23 38.85 38.57 37.84 37.63 37.34
26.46 22.68 28.03 26.77 28.37 26.40 25.70 24.72 25.10 27.00 27.82 23.84 23.51 28.36 29.64 20.81 20.86 25.43 26.73 27.42 27.30 29.42 28.94 31.67 24.79 30.96 26.31 32.75 32.65 29.89 33.88 36.75 37.77 37.88 35.77 33.45 32.12 36.02 40.18 40.25 38.57 38.48 38.34 37.67 37.62
30.60 30.65 28.53 21.99 23.95 24.43 22.08 26.43 27.96 27.98 28.35 29.95 30.25 28.73 22.79 25.99 29.66 31.97 31.97 30.93 28.69 27.03 26.37 27.91 28.27 26.56 20.66 28.86 29.27 21.40 28.81 35.32 37.45 38.66 38.15 31.91 34.18 38.78 37.99 39.34 39.00 38.84 39.54 39.31 39.82
MSLP
1021.48 1021.39 1021.38 1021.24 1021.18 1020.94 1020.99 1020.97 1020.96 1020.79 1020.60 1020.47 1020.26 1020.04 1019.79 1019.58 1019.20 1019.01 1018.31 1016.90 1016.67 1016.28 1016.36 1016.33 1015.96 1015.86 1015.73 1015.56 1015.40 1015.32 1015.31 1014.02 1013.26 1012.89 1012.18 1011.18 1010.97 1010.21 1010.61 1011.07 1011.67 1011.48 1011.53 1011.63 1013.23
1021.01 1021.01 1021.03 1020.88 1020.85 1020.81 1020.79 1020.75 1020.71 1020.62 1020.46 1020.29 1020.14 1019.90 1019.56 1019.41 1019.11 1018.22 1016.82 1016.14 1016.06 1016.12 1016.52 1016.48 1016.22 1016.04 1015.54 1015.41 1015.32 1015.02 1014.09 1013.23 1012.71 1012.54 1011.93 1011.40 1011.12 1010.67 1011.53 1011.63 1011.97 1011.96 1011.61 1012.11 1013.15
1020.84 1020.81 1020.84 1020.72 1020.53 1020.53 1020.48 1020.54 1020.55 1020.48 1020.30 1020.13 1019.95 1019.87 1019.67 1019.48 1019.07 1017.14 1016.01 1015.61 1016.20 1016.18 1016.49 1016.46 1016.41 1016.28 1015.21 1014.90 1014.54 1013.97 1012.97 1013.14 1012.63 1012.38 1012.52 1011.87 1011.08 1010.63 1010.30 1011.15 1011.90 1011.04 1011.54 1012.38 1013.10
1020.44 1020.49 1020.46 1020.50 1020.33 1020.29 1020.26 1020.28 1020.28 1020.30 1020.21 1020.01 1019.88 1019.72 1019.67 1019.62 1018.60 1016.11 1015.72 1015.69 1015.79 1015.93 1016.12 1016.36 1016.21 1016.13 1014.96 1014.22 1013.60 1013.56 1013.08 1012.85 1012.45 1012.53 1012.56 1011.99 1011.09 1010.70 1010.47 1010.00 1010.40 1011.02 1010.46 1011.89 1013.00
1019.91 1020.12 1020.17 1020.34 1020.09 1019.98 1020.04 1019.97 1020.08 1019.97 1019.92 1019.84 1019.69 1019.63 1019.72 1019.51 1017.83 1016.08 1016.03 1015.78 1015.67 1015.49 1015.74 1016.01 1015.89 1015.64 1014.79 1013.80 1013.64 1013.15 1012.82 1012.61 1012.07 1012.24 1012.39 1011.92 1011.40 1010.63 1010.30 1010.07 1010.45 1011.14 1011.50 1011.83 1012.75
1019.57 1019.80 1019.63 1020.20 1019.81 1019.72 1019.81 1019.89 1019.75 1019.67 1019.59 1019.56 1019.57 1019.54 1019.63 1018.95 1016.44 1016.01 1016.00 1015.97 1015.63 1015.40 1015.37 1015.65 1015.46 1015.13 1014.78 1013.79 1013.12 1012.54 1012.73 1012.34 1012.16 1011.92 1012.27 1011.89 1011.05 1011.00 1009.97 1009.98 1010.98 1011.13 1011.60 1012.03 1012.57
1019.21 1019.36 1019.58 1019.82 1019.57 1019.52 1019.63 1019.59 1019.47 1019.42 1019.37 1019.38 1019.42 1019.51 1019.37 1017.51 1016.02 1015.70 1015.80 1015.71 1015.44 1015.32 1015.20 1015.02 1015.23 1015.17 1014.03 1013.85 1013.02 1012.90 1012.86 1012.55 1012.04 1011.56 1011.69 1011.72 1010.93 1010.53 1010.16 1010.51 1011.14 1011.50 1011.76 1012.13 1012.60
1019.09 1019.28 1019.54 1019.46 1019.58 1019.55 1019.47 1019.41 1019.28 1019.27 1019.25 1019.25 1019.19 1019.44 1018.71 1016.40 1015.89 1015.80 1015.15 1015.08 1014.70 1014.63 1014.73 1014.44 1014.67 1014.82 1013.71 1013.19 1012.90 1012.51 1012.81 1012.69 1011.44 1011.72 1011.51 1011.64 1010.18 1009.97 1009.90 1010.55 1011.10 1011.51 1011.95 1012.13 1012.41
1019.28 1019.41 1019.59 1019.52 1019.58 1019.55 1019.42 1019.32 1019.29 1019.13 1019.07 1019.01 1019.36 1019.45 1018.16 1016.08 1015.68 1015.08 1014.88 1014.79 1014.42 1014.28 1014.08 1013.98 1014.38 1013.65 1013.21 1013.11 1012.97 1013.07 1012.81 1012.38 1011.99 1011.51 1011.16 1010.94 1010.38 1009.22 1009.56 1010.58 1010.84 1011.39 1011.73 1011.79 1012.32
1019.71 1019.57 1019.71 1019.66 1019.65 1019.56 1019.42 1019.24 1019.11 1019.08 1018.96 1018.97 1019.23 1019.62 1017.51 1016.17 1015.39 1014.90 1014.20 1014.18 1014.21 1014.15 1014.04 1013.69 1013.81 1012.24 1011.63 1011.51 1011.42 1012.29 1012.66 1012.30 1011.37 1010.89 1011.11 1010.67 1010.27 1009.19 1009.11 1009.97 1010.56 1010.92 1011.38 1011.37 1011.65
1019.98 1019.69 1019.75 1019.75 1019.75 1019.66 1019.68 1019.46 1019.92 1019.76 1019.49 1019.30 1018.85 1018.31 1017.05 1015.92 1015.34 1014.44 1013.92 1013.67 1013.77 1014.00 1013.75 1013.20 1012.72 1010.89 1010.59 1010.73 1011.70 1012.38 1012.51 1012.13 1011.27 1010.86 1010.31 1009.59 1010.13 1009.25 1008.59 1009.50 1010.05 1010.61 1010.93 1010.76 1011.03
1020.14 1019.78 1019.85 1019.91 1019.97 1019.84 1020.00 1020.51 1020.75 1020.94 1020.08 1018.85 1018.30 1017.85 1016.72 1016.07 1015.24 1014.17 1013.63 1013.81 1013.41 1013.37 1013.57 1013.75 1011.05 1010.70 1010.77 1011.09 1011.89 1012.49 1012.51 1012.29 1011.75 1010.50 1009.79 1009.43 1009.37 1009.17 1008.79 1008.82 1009.30 1009.85 1010.16 1010.38 1010.87
1020.31 1020.06 1020.12 1020.15 1020.26 1020.36 1020.63 1020.97 1020.77 1020.64 1020.79 1018.80 1017.64 1016.95 1016.17 1015.92 1015.21 1014.10 1013.72 1013.22 1012.94 1013.13 1012.88 1012.41 1010.75 1010.13 1010.15 1010.77 1011.77 1012.12 1011.72 1012.43 1011.90 1010.10 1009.59 1009.29 1009.12 1008.61 1008.76 1008.70 1009.30 1009.52 1009.26 1009.72 1010.13
1020.42 1020.44 1020.30 1020.33 1020.76 1020.70 1020.87 1020.92 1020.74 1020.74 1021.13 1019.05 1017.41 1016.26 1015.85 1015.52 1014.88 1013.65 1013.11 1013.15 1012.37 1012.15 1011.97 1011.74 1010.88 1010.09 1010.17 1010.63 1010.93 1011.36 1011.60 1012.32 1011.61 1010.99 1008.61 1008.57 1007.78 1008.18 1008.39 1008.35 1008.64 1009.30 1009.58 1009.86 1010.33
1020.80 1020.75 1020.55 1020.53 1021.10 1021.18 1021.27 1020.91 1020.72 1021.10 1021.30 1019.07 1017.41 1016.01 1015.88 1016.01 1014.88 1013.38 1012.63 1012.56 1013.05 1012.92 1012.11 1010.93 1010.15 1009.90 1009.60 1009.70 1010.35 1010.28 1010.93 1011.23 1010.89 1010.61 1009.70 1007.92 1008.14 1006.95 1007.92 1007.80 1008.12 1008.75 1009.28 1009.76 1010.26
1021.00 1021.04 1020.77 1021.12 1021.39 1021.34 1021.10 1020.91 1021.18 1022.44 1021.65 1019.79 1018.32 1017.27 1016.92 1016.00 1015.23 1014.15 1013.19 1012.66 1012.75 1013.07 1012.06 1011.15 1010.20 1009.81 1009.34 1009.25 1009.86 1010.23 1010.43 1010.69 1011.47 1010.53 1009.69 1007.51 1007.15 1006.74 1006.42 1006.58 1007.92 1008.33 1008.87 1009.50 1010.29
1021.26 1021.26 1021.16 1021.52 1021.96 1021.32 1021.17 1021.59 1022.95 1023.35 1022.47 1021.27 1020.04 1019.03 1018.31 1017.38 1016.19 1015.19 1014.09 1013.38 1012.94 1012.43 1011.59 1011.84 1010.20 1009.50 1009.11 1008.71 1009.73 1009.40 1010.51 1011.25 1011.10 1009.92 1008.95 1008.11 1007.94 1007.00 1005.77 1006.15 1007.13 1007.88 1008.58 1009.41 1010.37
1021.32 1021.27 1021.65 1021.77 1021.73 1021.36 1021.69 1022.93 1024.26 1024.33 1023.63 1022.19 1021.29 1020.40 1019.76 1018.63 1017.45 1016.57 1015.43 1014.38 1013.25 1012.92 1012.09 1011.41 1010.59 1009.84 1009.00 1008.67 1008.79 1009.54 1010.72 1010.91 1010.43 1009.33 1008.89 1008.45 1008.20 1007.50 1006.77 1006.69 1007.36 1007.51 1008.54 1009.65 1011.16
1021.19 1021.60 1021.86 1021.83 1021.48 1021.44 1022.67 1024.40 1024.95 1024.71 1023.84 1023.26 1022.38 1022.05 1021.30 1020.10 1019.41 1017.93 1016.96 1015.54 1014.29 1013.49 1013.43 1011.69 1010.54 1009.90 1009.22 1009.27 1009.14 1009.81 1009.74 1009.50 1009.54 1009.28 1009.08 1008.95 1008.75 1007.89 1007.72 1007.81 1007.81 1008.35 1009.42 1010.56 1011.80
1022.05 1022.10 1022.09 1021.77 1021.46 1022.16 1024.08 1025.60 1025.23 1024.21 1023.68 1023.64 1024.00 1023.65 1023.26 1021.80 1020.81 1019.22 1017.77 1016.47 1015.23 1013.87 1012.93 1012.18 1011.40 1010.70 1010.14 1009.50 1009.49 1009.23 1009.11 1009.44 1009.31 1009.26 1009.17 1008.98 1008.78 1008.53 1008.52 1008.75 1008.95 1009.59 1010.58 1011.69 1012.91
1022.40 1022.64 1022.05 1021.68 1021.73 1023.31 1025.32 1025.79 1024.93 1023.86 1023.57 1023.64 1023.85 1024.09 1024.03 1023.23 1022.00 1020.55 1018.71 1017.04 1016.12 1014.56 1013.22 1012.89 1012.12 1011.91 1010.99 1011.14 1010.54 1009.71 1009.60 1009.29 1009.02 1009.29 1009.12 1009.07 1009.37 1009.19 1008.97 1008.90 1009.60 1010.66 1011.72 1012.61 1013.51
1023.01 1023.42 1022.33 1021.70 1023.32 1025.20 1026.15 1025.64 1024.72 1023.88 1023.26 1023.07 1023.24 1023.80 1024.07 1023.64 1022.90 1021.49 1019.74 1017.89 1016.94 1015.89 1014.89 1013.73 1013.22 1012.93 1012.54 1011.84 1011.40 1010.78 1010.21 1009.66 1009.34 1009.58 1009.53 1009.26 1009.62 1009.14 1009.06 1009.73 1010.45 1011.59 1012.74 1013.88 1014.51
1024.08 1023.96 1022.75 1022.59 1024.27 1025.65 1025.76 1025.52 1024.71 1023.93 1023.28 1023.10 1023.05 1023.29 1023.85 1023.94 1023.53 1021.99 1019.96 1017.90 1017.30 1016.78 1016.22 1014.86 1013.80 1013.62 1013.11 1012.59 1011.96 1011.58 1010.89 1009.97 1009.61 1010.00 1010.10 1009.94 1009.70 1009.44 1009.49 1010.41 1011.66 1012.45 1013.55 1014.23 1014.95
1024.59 1024.94 1024.55 1024.68 1025.27 1025.63 1025.99 1025.69 1024.75 1023.66 1023.36 1023.09 1023.01 1022.87 1023.56 1023.81 1023.42 1022.56 1021.01 1019.01 1017.89 1017.13 1016.03 1015.40 1014.94 1014.64 1013.85 1013.19 1012.75 1012.04 1011.37 1010.60 1010.18 1009.90 1010.09 1009.84 1009.83 1010.14 1010.71 1011.44 1012.62 1013.63 1014.41 1015.06 1015.70
1024.89 1025.96 1026.44 1026.35 1026.25 1025.89 1025.55 1025.39 1024.85 1023.97 1023.25 1023.14 1022.96 1023.18 1023.71 1024.06 1023.50 1022.72 1021.52 1020.22 1018.53 1017.96 1016.96 1016.50 1015.88 1015.23 1014.74 1013.98 1013.48 1012.73 1011.73 1011.25 1010.77 1010.36 1010.29 1010.21 1010.08 1010.40 1011.10 1011.93 1012.94 1013.87 1014.90 1015.52 1016.11
1024.78 1025.52 1026.50 1026.58 1026.28 1025.90 1025.19 1024.89 1024.61 1024.00 1023.48 1023.23 1023.41 1023.17 1023.45 1023.64 1023.30 1022.81 1022.18 1021.48 1020.63 1019.20 1018.56 1017.72 1016.94 1016.10 1015.41 1014.76 1014.55 1013.53 1012.62 1011.70 1011.20 1010.89 1010.68 1010.50 1010.63 1010.78 1011.62 1012.35 1013.45 1014.21 1014.90 1015.60 1016.39
1024.51 1024.93 1025.17 1026.27 1026.16 1025.98 1025.33 1024.74 1024.48 1024.36 1023.47 1023.04 1023.10 1023.31 1023.35 1023.06 1022.84 1022.70 1022.48 1022.06 1021.86 1021.50 1020.53 1019.46 1018.44 1017.32 1016.16 1015.28 1014.17 1013.61 1012.51 1011.80 1011.54 1011.32 1011.13 1011.12 1011.19 1011.26 1012.07 1012.76 1013.53 1014.18 1014.78 1015.56 1016.31
Wind_Speed
11 10 10 10 11 9 8 9 9 8 8 10 11 11 12 14 15 5 8 11 8 10 6 6 3 3 1 3 4 2 5 10 13 7 5 4 6 1 2 3 4 3 7 10 16
10 11 12 11 10 10 10 10 8 9 8 9 10 11 12 14 6 9 12 18 20 16 7 5 7 7 4 6 6 7 6 16 3 7 8 6 4 6 7 2 4 2 4 22 18
12 12 12 12 10 10 10 10 8 9 9 8 10 11 12 10 5 6 9 13 11 18 10 10 7 6 11 7 8 8 14 7 11 11 8 8 3 3 4 4 10 9 23 22 18
12 11 10 12 11 10 10 9 8 8 9 9 9 9 11 2 7 2 8 18 17 8 10 14 9 7 10 16 8 6 10 18 11 6 8 7 4 4 5 10 9 15 29 23 19
10 8 9 11 10 8 8 9 9 9 8 9 8 8 3 1 11 9 16 17 10 7 4 13 16 11 14 8 8 12 11 13 16 8 16 12 10 6 6 7 10 16 20 22 17
9 7 6 8 7 7 8 9 9 9 8 8 7 6 1 8 5 7 7 9 11 5 4 5 12 12 11 8 16 4 17 14 14 17 12 21 13 5 6 9 12 20 20 19 18
6 4 5 6 5 6 7 8 8 7 7 7 6 2 4 17 4 10 11 4 5 8 6 6 10 17 10 6 2 3 4 6 19 17 11 12 16 12 6 14 16 18 15 16 13
0 1 3 3 4 4 6 8 8 7 7 7 6 2 8 7 6 8 12 8 7 10 10 8 8 13 19 3 2 4 4 5 6 15 14 6 17 20 9 12 15 15 14 13 13
3 1 0 0 1 4 7 8 7 7 8 8 2 3 10 9 4 6 5 7 6 6 7 9 6 12 8 10 5 4 3 8 7 16 11 16 5 18 15 13 15 15 16 13 13
4 4 3 2 2 5 6 8 6 5 5 2 2 4 6 5 6 7 13 12 10 6 5 7 7 13 8 12 8 6 5 6 10 10 25 25 16 9 14 15 14 15 16 16 16
5 5 3 2 3 4 5 4 6 5 4 5 6 6 11 9 8 5 8 5 4 5 9 13 14 12 24 13 7 3 4 8 10 10 24 26 23 10 20 17 14 14 15 16 16
5 5 5 4 3 5 3 4 2 3 9 8 13 11 13 6 9 12 4 3 4 12 10 13 21 13 9 11 10 6 7 13 11 9 24 24 30 17 7 15 18 18 18 15 14
6 7 7 5 5 4 3 2 4 2 2 8 6 5 8 1 6 11 3 5 8 8 14 15 6 9 10 13 14 6 4 4 7 4 21 15 32 22 7 4 10 13 17 18 18
8 7 6 6 4 2 1 5 4 2 5 7 4 5 4 3 7 6 6 5 5 6 7 9 9 12 16 15 8 8 11 7 7 5 6 24 8 27 18 11 14 13 12 15 15
8 7 8 8 2 2 5 5 5 4 5 7 7 3 7 4 8 3 4 2 5 9 4 5 8 10 22 15 10 6 10 4 4 11 5 12 5 11 23 13 11 16 16 15 16
9 10 8 4 2 1 6 6 4 9 6 7 5 8 9 4 5 6 5 3 4 4 3 5 0 2 3 12 8 13 4 1 1 1 4 8 3 6 25 25 15 15 17 16 14
7 9 5 2 3 6 4 4 7 5 4 9 5 9 8 7 7 6 5 6 2 6 5 3 5 5 5 10 10 7 7 3 4 3 2 4 5 3 23 21 17 15 16 17 16
6 5 3 1 5 5 4 7 5 4 6 5 5 10 5 6 4 8 8 7 5 3 5 2 3 1 2 2 6 10 7 2 4 1 2 7 5 2 4 7 11 11 14 17 13
3 2 2 4 5 3 7 5 7 6 4 6 8 6 7 5 1 8 5 8 5 7 4 4 2 1 5 4 1 4 4 5 3 2 0 2 2 2 3 7 9 12 16 16 14
2 2 2 6 4 5 7 4 3 3 3 5 1 3 3 6 8 8 6 4 14 11 8 6 3 4 2 4 2 3 5 2 2 1 1 1 2 2 4 7 9 12 14 14 13
4 4 4 6 4 7 3 6 5 4 3 3 3 3 4 5 3 5 7 5 10 15 10 7 3 6 2 6 3 4 2 3 2 3 0 2 3 4 2 7 12 11 11 12 14
2 3 4 3 6 2 1 4 4 3 2 3 3 2 4 3 3 3 4 5 9 11 7 3 3 2 2 4 1 3 3 2 3 2 2 1 3 4 5 8 11 12 13 11 11
2 3 4 4 4 2 3 5 3 3 2 3 3 3 3 3 4 3 6 6 10 8 7 7 4 2 2 3 3 3 5 3 3 4 1 1 1 5 10 11 10 14 11 10 11
4 3 5 5 1 5 1 4 6 3 3 2 3 2 1 3 3 5 7 6 14 7 19 2 3 2 4 4 3 3 3 3 3 3 1 1 3 3 4 10 9 9 9 9 9
3 1 2 3 4 2 0 2 6 4 2 2 2 1 0 4 5 3 5 7 9 11 9 6 3 3 2 3 3 5 5 3 0 1 3 4 3 4 6 8 9 10 10 10 9
4 4 2 2 2 4 2 1 2 5 2 3 2 2 3 4 6 3 6 3 4 10 8 10 4 6 3 3 3 3 7 0 2 2 1 2 2 1 5 8 7 10 10 9 9
1 2 5 3 1 2 3 2 2 4 4 4 1 3 3 5 3 6 6 5 4 5 7 7 6 6 4 5 7 5 5 5 2 0 2 2 2 3 4 6 9 9 10 10 10
Wind_Direction
294 297 298 293 299 300 291 296 301 307 320 327 326 332 334 331 324 280 246 231 220 260 274 305 296 218 170 220 191 79 229 227 217 241 248 249 219 230 17 123 312 299 153 158 147
309 299 290 285 286 289 290 295 292 301 306 317 319 325 331 328 299 258 248 252 242 253 291 258 272 250 216 197 191 184 225 233 241 238 302 276 275 171 157 154 310 274 88 142 143
295 297 298 292 283 282 289 286 291 291 300 305 314 321 328 330 305 245 36 48 258 273 267 252 254 272 234 192 197 183 232 236 251 252 292 287 251 262 218 206 218 182 146 154 153
296 288 287 291 287 285 289 295 288 286 287 294 304 310 323 290 282 241 304 324 327 298 244 256 241 245 241 208 204 230 215 220 227 234 256 263 275 248 206 228 180 180 157 159 161
284 283 279 291 289 280 279 284 282 278 277 285 299 314 3 297 249 271 298 306 309 262 238 239 237 231 258 228 220 222 233 214 225 214 249 262 276 243 257 270 152 152 160 166 159
274 275 279 280 278 273 275 278 278 278 275 285 297 334 231 266 244 261 280 314 301 246 229 240 239 228 280 269 219 218 227 233 224 221 243 246 260 221 243 111 153 160 169 170 162
259 262 272 267 275 260 268 279 279 281 269 289 302 318 249 252 251 295 294 240 243 274 268 255 264 251 194 237 193 199 232 253 233 217 218 236 263 226 219 156 162 174 167 170 157
181 286 244 276 269 273 285 286 274 266 279 290 309 44 253 264 265 281 278 279 242 225 238 251 235 269 247 307 107 130 128 234 235 205 207 164 242 222 179 164 172 175 174 171 166
70 146 38 354 296 290 288 280 269 282 289 292 338 166 266 304 279 276 246 255 271 270 261 260 217 250 169 217 173 196 192 199 253 226 218 212 225 216 167 185 179 176 184 173 168
86 85 71 52 309 300 291 283 283 320 311 203 246 311 266 267 297 278 274 258 245 264 278 242 236 214 199 189 184 169 188 219 231 229 210 207 246 221 180 179 187 177 181 177 178
71 81 76 7 351 335 353 10 16 351 23 239 256 248 285 277 289 271 288 264 199 207 211 262 233 235 199 201 169 159 213 243 247 281 204 199 223 246 175 193 179 183 180 180 182
73 68 56 50 25 344 51 78 118 238 303 257 259 258 263 249 296 290 294 283 238 229 198 254 242 201 186 166 184 168 225 249 288 246 205 206 219 232 182 179 178 183 177 175 162
66 64 57 33 348 24 84 45 335 20 272 293 246 259 264 273 264 280 239 254 248 232 233 239 265 198 152 165 170 171 171 219 262 320 221 205 206 231 216 197 194 194 189 175 165
67 58 30 328 21 295 57 325 342 100 54 282 318 281 295 253 273 235 237 253 319 294 223 258 228 204 177 185 173 182 178 215 270 251 235 189 210 218 217 212 176 183 183 188 179
47 13 357 41 266 29 308 324 324 60 21 285 296 262 295 224 288 320 254 261 263 273 261 226 177 236 181 188 177 187 166 224 335 262 248 179 151 192 210 222 205 184 185 184 189
36 8 17 18 12 339 318 321 50 41 267 321 316 319 332 304 294 298 299 234 170 295 231 316 236 224 246 158 172 133 103 330 270 167 230 197 145 187 190 202 211 188 184 175 171
27 27 45 24 306 319 329 45 32 118 322 307 318 327 316 313 309 343 320 317 307 308 18 331 267 163 224 128 126 100 81 213 237 210 188 245 113 279 201 192 207 191 177 164 154
334 37 16 95 312 348 47 45 80 239 248 301 325 317 336 332 308 325 338 349 358 284 300 253 148 19 354 358 151 125 160 141 292 357 99 131 187 122 11 158 212 184 163 148 146
3 26 32 317 341 58 66 45 208 210 255 321 325 29 315 327 298 357 359 330 328 354 353 338 18 128 15 345 134 179 215 160 195 219 102 147 265 315 41 81 132 140 145 144 139
50 50 312 319 354 60 72 259 238 244 319 55 89 123 304 308 359 3 346 6 341 327 329 316 357 16 5 330 92 204 142 130 15 19 18 193 93 55 140 131 114 125 132 126 121
49 42 266 331 60 47 134 235 274 272 247 127 207 306 264 303 304 307 304 314 10 329 337 1 5 326 16 19 357 38 126 44 164 114 241 133 71 223 265 161 136 124 121 128 130
77 18 303 20 58 90 76 213 262 292 314 296 166 175 212 303 307 311 321 280 19 323 352 321 314 65 298 297 31 36 318 283 118 318 338 336 75 328 224 138 136 125 124 122 118
66 286 320 66 98 3 322 294 278 299 286 304 279 158 196 283 350 262 323 310 5 354 350 329 348 19 251 179 152 59 311 302 94 80 254 64 87 18 85 108 126 128 128 129 124
77 12 331 37 58 130 61 282 310 259 267 299 296 298 187 349 259 296 318 308 327 343 326 267 321 3 15 12 353 344 322 354 62 78 312 312 144 81 82 118 122 121 123 125 126
50 265 132 312 326 15 133 227 301 306 241 294 294 41 228 297 341 304 329 315 316 360 347 17 332 9 298 317 24 315 337 315 236 4 77 316 79 169 163 154 149 134 129 131 137
132 143 160 272 309 309 305 273 263 301 242 264 234 262 303 216 197 306 317 353 337 332 352 347 323 349 293 242 184 285 291 232 295 353 21 84 73 358 109 107 130 147 147 151 154
278 10 109 290 220 56 246 268 331 6 290 257 246 310 282 254 309 289 280 274 298 325 322 341 349 350 292 342 349 346 242 184 138 154 65 35 30 131 110 139 158 157 161 163 164